Temperature
17 16 16 16 16 16 16 16 16 16 16 16 16 16 16 16 16 16 16 16 16 16 16 15 15 15 15 15 15 15 15 15 15 15 15 15 15 14
16 16 16 16 16 16 16 16 16 16 16 16 16 16 16 16 16 16 16 16 15 15 15 15 15 15 15 15 15 15 15 15 15 15 15 15 14 14
16 16 16 16 16 16 16 16 16 16 16 16 16 16 16 16 16 16 16 15 15 15 15 15 15 15 15 15 15 15 15 14 14 14 14 14 14 14
16 16 16 16 16 16 16 16 16 16 16 16 16 16 16 15 15 15 15 15 15 15 15 15 15 15 15 14 14 14 14 14 14 14 14 14 14 14
16 16 16 16 16 16 15 15 16 15 15 15 15 15 15 15 15 15 15 15 15 15 14 14 14 14 14 14 14 14 14 14 14 14 14 14 13 13
16 15 15 15 15 15 15 15 15 15 15 15 15 15 15 15 14 14 14 14 14 14 14 14 14 14 14 14 14 14 14 14 13 13 13 13 13 13
15 15 15 15 15 15 15 15 15 15 15 14 14 14 14 14 14 14 14 14 14 14 14 14 14 14 14 13 13 13 13 13 13 13 13 13 13 13
15 15 15 15 15 15 14 14 14 14 14 14 14 14 14 14 14 14 13 13 13 13 13 13 13 13 13 13 13 13 13 13 13 13 13 13 13 12
14 14 14 14 14 14 14 14 14 14 14 14 14 14 14 14 13 13 13 13 13 13 13 13 13 13 13 13 13 13 13 13 13 12 12 12 12 12
14 14 14 14 14 14 14 14 14 14 14 14 13 13 13 13 13 13 13 13 13 12 12 12 13 13 13 12 13 12 12 12 12 12 12 12 12 12
14 14 14 14 14 13 13 13 14 14 13 13 13 13 13 13 13 12 12 12 12 12 12 12 12 12 12 12 12 12 12 12 12 12 12 12 11 11
13 13 13 13 13 13 13 13 13 13 13 13 13 13 13 13 13 12 12 12 12 12 12 12 12 12 11 12 12 12 12 12 11 11 11 11 11 11
13 13 13 13 13 13 13 13 12 12 12 12 13 13 13 12 12 12 12 12 12 12 12 11 11 11 11 11 11 11 11 11 11 11 11 11 11 11
13 13 13 13 12 12 12 12 12 12 12 12 12 12 12 12 12 12 12 12 11 11 11 11 11 11 11 11 11 11 11 11 11 11 11 11 11 10
12 12 12 12 12 12 12 12 12 12 12 12 12 12 12 12 12 11 11 11 11 11 11 11 11 11 11 10 10 11 11 11 11 10 10 10 10 10
12 12 12 12 12 12 12 12 12 12 12 11 11 11 11 11 11 11 11 11 11 11 11 11 11 10 10 10 10 10 10 10 10 10 10 10 10 10
12 12 12 12 12 12 12 12 12 11 11 11 11 11 11 11 11 11 11 10 10 10 10 10 10 10 10 10 10 10 10 10 10 10 10 10 10 10
11 11 11 11 11 11 11 11 11 11 11 11 11 11 11 11 11 10 10 10 10 10 10 10 10 10 10 10 10 10 10 9 9 9 9 9 9 9
11 11 11 11 11 11 11 11 10 10 10 10 10 10 10 10 10 10 10 10 10 10 10 10 10 9 9 9 9 9 9 9 9 9 9 9 9 9
11 11 11 11 10 10 10 10 10 10 10 10 10 10 10 10 10 10 9 9 9 9 9 9 9 9 9 8 8 9 9 9 9 9 9 9 9 9
11 10 10 10 10 10 10 10 10 10 10 10 10 10 9 9 9 9 9 9 9 9 9 9 9 9 8 8 8 8 9 8 8 8 9 9 9 9
10 10 10 10 10 10 9 9 10 10 9 9 9 9 9 9 9 9 9 9 9 9 9 9 8 8 8 8 8 8 8 8 8 8 8 8 8 8
10 10 10 9 9 9 9 9 9 9 9 9 9 9 9 9 9 9 9 8 8 8 8 8 8 8 8 8 8 8 8 8 8 8 8 8 8 8
Wind_Speed
3 3 3 3 3 3 3 3 3 3 3 3 2 2 3 3 4 4 4 4 4 5 5 6 7 7 7 6 6 5 5 6 6 5 6 5 6 7
2 2 3 2 2 2 3 3 3 3 4 3 3 2 2 3 3 3 4 4 5 5 5 5 5 6 7 6 6 6 6 6 6 6 6 6 7 7
2 2 3 3 2 2 3 3 3 3 4 3 2 2 2 2 2 2 3 3 4 4 4 4 4 5 6 6 6 5 5 6 6 7 7 6 7 7
3 2 3 2 2 2 2 3 4 4 4 4 2 2 2 2 2 2 2 2 3 4 4 4 4 4 4 5 6 6 5 6 6 6 6 6 6 7
3 3 3 3 3 3 3 3 3 3 3 3 3 2 2 2 1 2 2 2 3 3 4 4 4 4 4 4 5 6 6 6 6 6 6 6 6 6
3 3 3 4 4 4 4 3 3 2 2 2 2 2 2 2 1 2 2 2 2 2 3 3 3 4 5 5 5 5 5 5 5 6 5 5 5 5
3 3 3 4 4 4 3 3 3 2 2 2 2 2 2 2 3 2 2 2 2 2 2 2 2 2 3 4 5 5 5 5 5 5 6 5 5 5
3 4 4 3 3 3 3 4 4 3 3 3 3 4 4 4 3 3 2 2 2 1 1 2 1 2 3 4 4 5 5 5 5 5 6 5 5 5
3 3 3 3 3 2 3 3 3 4 5 5 5 5 5 5 5 4 4 3 3 2 1 2 2 2 3 4 5 5 5 5 5 4 4 5 6 5
3 3 2 3 3 2 2 3 3 4 5 5 5 6 6 5 6 5 4 3 2 1 2 2 2 2 3 3 4 5 5 5 5 4 4 4 5 5
3 2 2 3 3 2 1 3 4 4 4 4 5 5 5 5 5 3 3 2 2 2 2 2 1 2 2 2 2 3 4 5 5 4 4 4 4 5
2 2 3 3 3 2 2 2 4 5 4 3 3 2 2 3 6 5 5 4 2 2 2 2 1 1 1 1 1 2 2 3 4 4 4 4 4 4
2 2 2 4 4 3 3 3 5 4 3 3 2 2 1 1 2 3 4 4 3 2 2 2 1 1 2 2 2 2 2 2 2 3 4 4 4 5
2 2 3 4 4 3 2 3 4 2 2 2 2 2 1 2 2 2 3 3 3 3 3 3 2 2 2 2 2 2 2 2 2 3 3 3 3 4
2 3 4 4 3 2 2 2 1 1 1 2 2 3 2 2 1 1 1 1 1 1 2 3 3 3 3 3 3 2 2 3 3 3 3 3 3 3
2 2 2 1 1 1 2 2 1 1 1 2 2 2 1 1 1 1 1 1 1 1 1 1 2 3 3 3 3 3 2 2 2 3 3 3 3 4
1 0 1 1 1 2 2 2 2 1 2 2 2 2 2 1 1 1 1 1 2 2 2 1 1 2 2 2 2 3 3 2 2 2 2 3 3 4
2 1 1 1 1 2 2 2 2 2 2 2 2 2 2 2 2 1 1 2 3 3 3 2 1 0 1 1 3 3 3 2 2 2 2 3 3 3
2 2 2 2 2 2 3 3 3 3 2 2 2 2 2 2 2 2 2 2 2 3 3 2 2 3 3 4 3 3 3 2 1 1 2 3 3 3
1 2 2 2 2 3 3 3 3 3 2 2 2 2 2 2 2 3 3 3 3 3 2 2 2 4 5 4 3 2 3 3 3 3 2 2 2 3
2 3 3 3 3 3 3 3 3 3 3 3 3 3 2 2 3 3 3 4 3 3 3 3 3 3 2 1 2 3 2 3 5 3 2 2 2 2
3 3 3 3 3 3 3 3 3 3 3 3 3 3 3 3 3 4 3 3 3 3 4 3 1 1 2 3 3 3 3 2 2 3 4 4 2 3
4 4 4 4 3 3 3 3 4 3 3 3 3 3 3 3 3 3 3 3 3 3 3 2 1 1 1 2 2 2 2 2 2 1 2 3 6 6
Wind_Direction
232 221 225 233 214 212 202 196 197 245 264 263 261 258 249 244 250 235 235 241 243 246 252 251 250 244 238 236 234 230 230 235 232 231 233 233 237 239
244 233 237 241 226 214 209 208 205 214 249 251 247 265 257 261 257 247 250 256 259 257 254 252 250 238 236 233 234 232 230 230 227 226 226 230 232 235
276 252 255 246 236 232 219 213 216 210 239 265 255 265 240 261 270 256 255 255 260 257 255 252 252 241 235 230 228 230 228 226 226 225 226 231 231 232
268 267 274 265 255 251 233 227 225 218 222 254 267 271 256 256 256 253 268 266 259 262 258 254 247 241 238 229 224 225 225 226 224 223 223 227 232 230
258 260 268 261 262 258 247 244 236 227 220 235 262 261 263 265 269 282 285 287 278 274 261 255 253 250 251 243 228 223 224 226 227 225 225 226 229 229
262 260 264 255 253 255 252 246 235 222 213 225 250 263 259 258 235 264 286 291 281 294 296 279 265 256 253 247 237 229 227 230 229 225 221 226 219 216
276 274 274 269 256 251 254 245 231 222 219 224 243 251 250 238 236 231 251 271 271 273 285 291 280 272 274 261 246 237 232 233 236 232 222 217 215 215
270 283 287 283 288 274 264 243 220 217 223 226 238 240 242 236 230 224 226 251 264 250 248 276 263 266 267 260 249 233 229 233 234 237 225 213 211 213
258 272 292 301 293 291 284 270 251 233 221 220 231 243 241 227 215 220 219 226 242 254 241 267 271 265 271 264 246 237 232 230 229 232 234 223 213 209
254 251 261 284 287 281 278 286 276 258 241 235 234 241 244 229 215 218 220 231 266 248 210 242 257 265 279 272 246 236 233 231 231 233 229 225 215 203
269 268 266 275 283 280 267 284 296 294 278 249 241 251 247 228 201 183 186 207 252 248 206 220 251 273 277 271 269 242 233 230 233 235 232 225 218 206
279 275 263 281 291 271 255 264 284 294 301 302 288 285 262 225 197 199 197 202 227 242 205 204 218 234 278 278 277 277 255 242 231 232 235 226 220 206
274 282 290 293 282 268 253 248 259 276 291 290 287 280 260 214 198 200 200 202 211 236 208 193 213 220 239 274 287 271 259 261 254 247 244 239 223 203
261 283 289 292 280 270 270 273 263 264 268 276 270 271 265 247 233 215 200 206 220 238 222 199 210 211 220 253 272 279 266 258 250 251 252 256 236 218
257 276 287 296 295 290 300 305 272 257 265 271 273 278 277 258 243 229 222 199 217 238 204 205 209 207 213 234 249 257 267 263 241 244 246 243 235 220
273 290 295 286 316 327 329 325 306 283 261 270 282 284 287 260 234 233 228 207 242 301 264 228 221 199 210 225 228 253 258 254 260 254 250 248 236 222
218 319 2 4 4 350 334 321 312 307 287 285 283 289 288 277 272 246 231 216 218 244 272 275 252 218 222 216 233 250 255 263 264 248 234 248 252 238
155 205 241 260 272 282 286 295 298 289 285 282 278 282 277 272 271 260 235 226 236 243 246 242 206 203 247 264 231 242 251 257 264 247 224 233 253 250
171 210 229 245 257 263 266 271 282 284 280 276 279 277 275 266 261 258 248 243 249 256 257 233 207 203 234 263 270 221 235 257 247 243 236 238 248 255
215 233 243 249 256 259 260 263 275 284 277 273 274 276 271 265 261 256 248 247 255 262 267 256 227 218 224 245 257 267 236 230 230 238 245 254 263 270
239 248 252 255 259 257 256 256 257 266 273 272 271 273 269 267 264 252 246 239 239 247 253 257 251 230 218 203 243 272 271 239 228 230 224 231 253 260
241 246 252 254 257 257 260 260 258 260 268 269 269 267 265 259 265 261 251 246 240 243 251 259 263 196 198 217 241 262 279 290 256 236 231 224 231 235
242 247 251 254 255 255 253 252 252 257 259 262 267 271 270 265 264 262 256 250 247 250 256 263 267 245 233 223 234 248 264 280 281 274 280 280 251 256
Height
1535 1535 1535 1535 1536 1536 1536 1536 1537 1535 1534 1534 1534 1534 1535 1535 1535 1534 1534 1534 1534 1534 1533 1533 1533 1533 1532 1532 1532 1532 1532 1532 1532 1532 1532 1533 1533 1534
1533 1533 1532 1532 1533 1533 1533 1533 1533 1533 1532 1531 1532 1532 1532 1531 1531 1531 1531 1531 1531 1531 1531 1531 1530 1530 1530 1529 1529 1528 1529 1529 1529 1529 1530 1530 1530 1530
1530 1530 1530 1530 1530 1530 1530 1530 1530 1530 1529 1528 1529 1529 1528 1528 1528 1528 1527 1527 1527 1528 1528 1527 1527 1527 1527 1526 1526 1525 1525 1525 1526 1526 1526 1527 1527 1527
1528 1527 1527 1527 1527 1526 1526 1526 1526 1526 1526 1525 1525 1525 1525 1525 1525 1524 1524 1524 1524 1524 1524 1524 1524 1524 1523 1523 1523 1522 1522 1522 1522 1523 1523 1523 1524 1524
1525 1524 1524 1524 1523 1523 1523 1523 1522 1522 1522 1522 1521 1521 1521 1521 1521 1521 1521 1520 1520 1521 1521 1521 1521 1520 1520 1520 1520 1519 1519 1519 1519 1519 1519 1520 1520 1521
1522 1521 1521 1520 1520 1520 1519 1519 1519 1518 1518 1518 1518 1518 1517 1517 1517 1517 1517 1517 1517 1517 1517 1517 1517 1517 1517 1517 1517 1516 1516 1516 1515 1516 1516 1516 1517 1517
1519 1518 1518 1517 1517 1517 1516 1516 1516 1515 1515 1514 1514 1514 1514 1513 1513 1513 1513 1513 1513 1513 1513 1513 1513 1513 1514 1513 1513 1513 1513 1512 1512 1512 1512 1513 1513 1514
1516 1515 1515 1514 1514 1513 1513 1512 1512 1512 1511 1511 1510 1510 1510 1510 1510 1509 1510 1510 1509 1510 1510 1509 1509 1509 1510 1510 1509 1509 1509 1509 1509 1509 1509 1509 1510 1510
1513 1512 1512 1512 1511 1510 1509 1509 1508 1508 1508 1507 1506 1506 1506 1506 1506 1506 1506 1506 1506 1506 1506 1505 1506 1506 1506 1506 1506 1506 1506 1506 1506 1506 1506 1506 1507 1507
1509 1509 1509 1508 1508 1507 1506 1505 1504 1504 1503 1503 1502 1503 1503 1503 1503 1503 1502 1503 1503 1503 1503 1502 1502 1502 1502 1502 1502 1502 1503 1502 1503 1503 1503 1503 1503 1504
1506 1506 1506 1505 1505 1504 1503 1502 1500 1500 1499 1498 1498 1498 1499 1499 1499 1499 1499 1499 1499 1499 1500 1499 1499 1499 1499 1499 1499 1499 1500 1500 1500 1500 1500 1500 1501 1501
1503 1503 1502 1502 1502 1501 1500 1498 1497 1496 1495 1495 1494 1495 1495 1495 1495 1495 1495 1496 1495 1496 1496 1496 1496 1496 1496 1496 1496 1496 1497 1497 1497 1497 1497 1498 1498 1498
1500 1499 1499 1499 1498 1497 1496 1495 1494 1493 1492 1492 1491 1491 1491 1491 1491 1492 1492 1493 1493 1493 1493 1493 1493 1493 1493 1493 1493 1493 1493 1493 1494 1494 1494 1495 1494 1494
1496 1496 1496 1496 1495 1494 1493 1492 1491 1490 1489 1489 1488 1488 1487 1488 1488 1489 1489 1489 1490 1490 1490 1490 1490 1490 1490 1489 1489 1490 1490 1490 1490 1490 1491 1491 1491 1491
1494 1493 1493 1493 1492 1491 1491 1490 1489 1487 1486 1486 1485 1485 1485 1485 1485 1486 1486 1486 1486 1486 1487 1487 1487 1487 1487 1487 1486 1486 1486 1486 1487 1487 1487 1487 1487 1487
1490 1490 1490 1490 1489 1489 1488 1487 1486 1485 1484 1483 1483 1482 1482 1482 1482 1482 1482 1482 1483 1483 1484 1484 1483 1484 1483 1483 1483 1483 1483 1483 1482 1483 1483 1483 1483 1484
1488 1487 1487 1486 1486 1485 1485 1484 1483 1482 1482 1481 1480 1480 1479 1479 1479 1479 1479 1479 1479 1479 1480 1480 1480 1480 1480 1480 1480 1480 1479 1479 1479 1479 1479 1480 1480 1480
1485 1484 1484 1483 1482 1482 1482 1481 1480 1479 1479 1478 1478 1477 1476 1476 1476 1476 1476 1475 1475 1475 1476 1476 1476 1476 1477 1476 1477 1476 1476 1476 1476 1476 1476 1476 1476 1476
1481 1481 1481 1481 1480 1480 1479 1478 1478 1477 1477 1476 1475 1474 1474 1473 1473 1473 1472 1472 1472 1472 1472 1473 1472 1472 1472 1472 1472 1473 1472 1472 1472 1473 1473 1473 1473 1473
1478 1478 1478 1478 1477 1477 1476 1476 1475 1475 1474 1473 1472 1471 1471 1470 1470 1469 1469 1469 1469 1469 1469 1469 1469 1469 1468 1469 1468 1468 1469 1469 1469 1469 1469 1470 1470 1470
1475 1475 1475 1475 1474 1474 1473 1473 1472 1472 1471 1470 1470 1469 1468 1468 1467 1466 1466 1466 1466 1466 1466 1466 1466 1466 1466 1466 1465 1464 1465 1465 1466 1466 1466 1467 1467 1467
1473 1472 1472 1471 1471 1470 1470 1469 1469 1468 1468 1467 1467 1466 1465 1465 1464 1464 1463 1463 1462 1462 1462 1463 1463 1463 1462 1462 1461 1461 1461 1462 1463 1463 1464 1464 1464 1463
1470 1469 1468 1468 1467 1467 1466 1466 1465 1464 1464 1463 1463 1463 1462 1461 1461 1460 1460 1460 1460 1459 1459 1459 1459 1459 1458 1458 1458 1458 1458 1459 1459 1459 1460 1460 1461 1461